Regional Weather Roundup
Issued by NWS

Home | Current Version | Previous Version | Graphics & Text | Print | Product List | Glossary On
Versions: 1 2 3 4 5 6 7 8 9 10 11 12 13 14 15 16 17 18 19 20 21 22 23 24 25 26 27 28 29 30 31 32 33 34 35 36 37 38 39 40 41 42 43 44 45 46 47 48 49 50
000
ASUS45 KBOI 160410
RWRID
WEATHER ROUNDUP FOR IDAHO
NATIONAL WEATHER SERVICE BOISE ID
1000 PM MDT MON SEP 15 2014

NOTE: "FAIR" INDICATES FEW OR NO CLOUDS BELOW 12000 FEET
WITH NO SIGNIFICANT WEATHER AND/OR OBSTRUCTIONS TO VISIBILITY

IDZ012-014-160500-
SOUTHWEST IDAHO


CITY           SKY/WX    TMP DP  RH WIND       PRES   REMARKS
BOISE          PTCLDY    76  34  21 SE6       29.92S
CALDWELL       PTCLDY    73  43  33 W9        29.96R
MOUNTAIN HOME  PTCLDY    76  36  24 VRB3      29.94R
$$

IDZ016-017-160500-
SOUTHCENTRAL IDAHO


CITY           SKY/WX    TMP DP  RH WIND       PRES   REMARKS
BURLEY         CLEAR     63  43  48 S3        30.05R
JEROME         PTCLDY    69  40  34 E10       30.04R
TWIN FALLS     PTCLDY    66  38  35 SE12      30.04S
$$

IDZ019>023-160500-
SOUTHEAST IDAHO


CITY           SKY/WX    TMP DP  RH WIND       PRES   REMARKS
IDAHO FALLS    PTCLDY    60  40  47 CALM      30.10R
POCATELLO      CLEAR     66  34  30 E3        30.09R
REXBURG        PTCLDY    66  33  29 SE5       30.10S
$$

IDZ006-010-011-018-031-032-160500-
CENTRAL IDAHO MOUNTAINS


CITY           SKY/WX    TMP DP  RH WIND       PRES   REMARKS
MCCALL         PTCLDY    58  34  40 NE5       30.08R
HAILEY           N/A     63  39  42 NW6       30.14R
STANLEY          N/A     50  28  42 CALM      30.23R
SALMON         MOCLDY    57  37  47 CALM      30.03R
CHALLIS        PTCLDY    66  33  29 CALM      30.10R
$$

IDZ002-004-006-007-026-160500-
NORTHERN IDAHO


CITY           SKY/WX    TMP DP  RH WIND       PRES   REMARKS
LEWISTON       MOCLDY    75  30  19 S8        29.85R
LOWELL           N/A     58  52  80 CALM      29.92R
COEUR D`ALENE  CLEAR     63  37  39 NE9       29.93S
MULLAN PASS    CLEAR     65  21  18 CALM      30.15S
$$


USA.gov is the U.S. government's official web portal to all federal, state and local government web resources and services.